Home   Weather   Büsingen am Hochrhein   Past weeks
Flag for Germany

Past Weather in Büsingen am Hochrhein, Baden-Württemberg, Germany — Yesterday and Last 2 Weeks

Now
55 °F

Sunny.


Feels Like: 55 °F
Forecast: 67 / 39 °F
Wind: 3 mph from North

Location: Zurich-Kloten

Current Time: Apr 6, 2020 at 11:20:16 am

Latest Report: Apr 6, 2020 at 10:20 am


Visibility: 10 mi

Pressure: 30.24 "Hg

Humidity: 51%

Dew Point: 37 °F

Location of Büsingen am HochrheinLocation

Past Weather in Büsingen am Hochrhein — Graph

°F

Büsingen am Hochrhein Temperature Yesterday

Maximum temperature yesterday: 64 °F (at 2:50 pm)
Minimum temperature yesterday: 32 °F (at 6:50 am)
Average temperature yesterday: 49 °F

High & Low Weather Summary for the Past Weeks

 TemperatureHumidityPressure
High64 °F (Apr 5, 2:50 pm)100% (Mar 29, 9:50 pm)30.39 "Hg (Mar 29, 9:50 pm)
Low21 °F (Mar 24, 5:50 am)19% (Apr 5, 5:20 pm)29.83 "Hg (Apr 2, 4:20 pm)
Average40 °F58%30.11 "Hg
* Reported Mar 22 8:20 am — Apr 6 9:50 am, Büsingen am Hochrhein. Weather by CustomWeather, © 2020

Note: Actual official high and low records may vary slightly from our data, if they occured in-between our weather recording intervals... More about our weather records

Büsingen am Hochrhein Weather History for the Previous 24 Hours

Scroll right to see more
 ConditionsComfort  
Time TempWeatherWind HumidityBarometerVisibility
9:50 am
Mon, Apr 6
52 °FSunny.3 mph58%30.24 "Hg10 mi
9:20 am50 °FSunny.3 mph67%30.24 "Hg10 mi
8:50 am46 °FSunny.5 mph71%30.24 "Hg10 mi
8:20 am41 °FSunny.2 mph81%30.21 "Hg10 mi
7:50 am37 °FSunny.2 mph81%30.21 "Hg10 mi
7:20 am36 °FSunny.3 mph81%30.21 "Hg10 mi
6:50 am36 °FClear.2 mph87%30.18 "Hg10 mi
6:20 am36 °FClear.2 mph87%30.18 "Hg10 mi
5:50 am36 °FPassing clouds.3 mph81%30.18 "HgN/A
5:20 am36 °FClear.3 mph87%30.15 "Hg10 mi
4:50 am36 °FClear.1 mph87%30.15 "Hg10 mi
4:20 am37 °FClear.1 mph81%30.15 "Hg10 mi
3:50 am36 °FClear.1 mph81%30.15 "Hg10 mi
3:20 am37 °FClear.1 mph81%30.15 "Hg10 mi
2:50 am37 °FClear.2 mph81%30.12 "Hg10 mi
1:50 am39 °FClear.1 mph87%30.12 "Hg10 mi
1:20 am41 °FClear.1 mph70%30.12 "Hg10 mi
12:50 am41 °FClear.1 mph70%30.12 "Hg10 mi
12:20 am41 °FClear.2 mph70%30.12 "Hg10 mi
11:50 pm
Sun, Apr 5
45 °FClear.2 mph66%30.12 "Hg10 mi
11:20 pm45 °FClear.2 mph66%30.09 "Hg10 mi
10:50 pm46 °FClear.6 mph57%30.09 "Hg10 mi
10:20 pm46 °FClear.2 mph57%30.09 "Hg10 mi
9:50 pm46 °FClear.2 mph62%30.09 "Hg10 mi
9:20 pm50 °FClear.1 mph50%30.09 "Hg10 mi
8:50 pm54 °FClear.1 mph41%30.09 "Hg10 mi
8:20 pm59 °FClear.3 mph34%30.09 "Hg10 mi
7:50 pm61 °FSunny.5 mph29%30.09 "Hg10 mi
7:20 pm63 °FPassing clouds.6 mph27%30.09 "HgN/A
6:50 pm64 °FSunny.7 mph26%30.09 "Hg10 mi
6:20 pm64 °FPassing clouds.7 mph24%30.09 "HgN/A
5:50 pm64 °FPassing clouds.7 mph21%30.09 "HgN/A
5:20 pm64 °FPassing clouds.9 mph19%30.09 "HgN/A
4:50 pm64 °FPassing clouds.7 mph28%30.12 "HgN/A
4:20 pm64 °FPassing clouds.8 mph30%30.12 "HgN/A
3:50 pm64 °FPassing clouds.7 mph28%30.12 "HgN/A
3:20 pm64 °FPassing clouds.8 mph30%30.12 "HgN/A
2:50 pm64 °FPassing clouds.8 mph28%30.15 "HgN/A
2:20 pm63 °FSunny.7 mph32%30.15 "Hg10 mi
1:50 pm61 °FSunny.3 mph39%30.18 "Hg10 mi
1:20 pm59 °FSunny.3 mph42%30.18 "Hg10 mi
12:50 pm57 °FSunny.3 mph44%30.18 "Hg10 mi
12:20 pm55 °FPassing clouds.5 mph47%30.18 "HgN/A
11:50 am55 °FSunny.2 mph44%30.21 "Hg10 mi
11:20 am52 °FSunny.2 mph50%30.21 "Hg10 mi
Weather by CustomWeather, © 2020

See weather overview

Advertising